Location: Unspecified
(17.6330°N, 0.0000°E)
Time: 02:32:07
(UTC+00:00)

Hubble Space Telescope - Visible Passes

Search period start: 23 October 2019 00:00
Search period end: 02 November 2019 00:00
Orbit: 536 x 540 km, 28.5° (Epoch: 21 October)

Date Brightness Start Highest point End Pass type
(mag) Time Alt. Az. Time Alt. Az. Time Alt. Az.
24 Oct 3.7 03:53:46 10° SSE 03:54:25 10° SSE 03:55:04 10° SE visible
24 Oct 1.5 05:31:20 10° SW 05:35:22 54° SSE 05:39:24 10° ENE visible
25 Oct 3.5 03:44:28 14° SE 03:44:28 14° SE 03:46:07 10° ESE visible
25 Oct 0.9 05:20:41 10° WSW 05:24:47 75° SSE 05:28:53 10° ENE visible
26 Oct 3.7 03:35:11 15° ESE 03:35:11 15° ESE 03:36:14 10° ESE visible
26 Oct 0.7 05:10:33 13° WSW 05:14:13 82° NNW 05:18:20 10° ENE visible
27 Oct 4.0 03:25:47 12° E 03:25:47 12° E 03:26:06 10° E visible
27 Oct 0.8 05:01:09 22° W 05:03:40 62° NNW 05:07:44 10° ENE visible
28 Oct 1.1 04:51:39 32° WNW 04:53:08 48° NNW 04:57:07 10° NE visible
29 Oct 1.4 04:42:03 36° NW 04:42:37 38° NNW 04:46:29 10° NE visible
30 Oct 1.8 04:32:22 31° N 04:32:22 31° N 04:35:49 10° NE visible
31 Oct 2.4 04:22:36 24° N 04:22:36 24° N 04:25:10 10° NE visible
01 Nov 2.9 04:12:47 19° NNE 04:12:47 19° NNE 04:14:31 10° NE visible
